Weather History for Port Angeles, WA

Change the Weather History Date:

Sunday, September 1, 2013

  Actual Average Record
Temperature  
Mean Temperature 62 °F -  
Max Temperature 73 °F 67 °F 81 °F (1972)
Min Temperature 53 °F 50 °F 39 °F (1999)
Degree Days  
Heating Degree Days 3    
Growing Degree Days 12 (Base 50)    
Moisture  
Dew Point 54 °F    
Average Humidity 75    
Maximum Humidity 93    
Minimum Humidity 53    
Precipitation  
Precipitation 0.00 in - - ()
Sea Level Pressure  
Sea Level Pressure 29.86 in    
Wind  
Wind Speed 5 mph (West)    
Max Wind Speed 14 mph    
Max Gust Speed -    
Visibility 10 miles    
Events      
Averages and records for this station are not official NWS values.
T = Trace of Precipitation, MM = Missing Value Source: NWS Daily Summary

Daily Weather History Graph

Daily Weather History Graph

Search for Another Location

Airport:

Trip Planner

Search our weather history database for the weather conditions in past years. The results will help you decide how hot, cold, wet, or windy it might be!

Date:

Astronomy

Sep. 01, 2013 Rise Set
Actual Time 6:32 AM PDT 7:54 PM PDT
Civil Twilight 6:00 AM PDT 8:26 PM PDT
Nautical Twilight 5:20 AM PDT 9:05 PM PDT
Astronomical Twilight 4:38 AM PDT 9:47 PM PDT
Moon 2:48 AM PDT (9/1) 5:44 PM PDT (9/1)
Length of Visible Light 14h 26m
Length of Day
13h 22m
Waning Crescent, 13% of the Moon is Illuminated
Sep 1
Waning Crescent
Sep 5
New
Sep 12
First Quarter
Sep 19
Full
Sep 26
Last Quarter

Hourly Weather History & Observations

Time (PDT) Temp. Dew Point Humidity Pressure Visibility Wind Dir Wind Speed Gust Speed Precip Events Conditions
12:53 AM 57.9 °F 54.0 °F 87% 29.87 in 10.0 mi Calm Calm - N/A   Clear
1:53 AM 54.0 °F 52.0 °F 93% 29.86 in 10.0 mi South 3.5 mph - N/A   Clear
2:53 AM 54.0 °F 51.1 °F 90% 29.86 in 10.0 mi SSW 3.5 mph - N/A   Clear
3:53 AM 57.0 °F 53.1 °F 87% 29.87 in 10.0 mi Variable 3.5 mph - N/A   Clear
4:53 AM 53.1 °F 51.1 °F 93% 29.87 in 10.0 mi Calm Calm - N/A   Clear
5:53 AM 54.0 °F 52.0 °F 93% 29.88 in 10.0 mi WSW 4.6 mph - N/A   Clear
6:53 AM 55.0 °F 52.0 °F 89% 29.88 in 10.0 mi West 5.8 mph - N/A   Clear
7:53 AM 61.0 °F 54.0 °F 78% 29.88 in 10.0 mi West 8.1 mph - N/A   Clear
8:53 AM 64.0 °F 55.9 °F 75% 29.88 in 10.0 mi NW 5.8 mph - N/A   Clear
9:53 AM 64.9 °F 57.0 °F 75% 29.88 in 10.0 mi North 4.6 mph - N/A   Clear
10:53 AM 64.9 °F 57.0 °F 75% 29.88 in 10.0 mi NNW 6.9 mph - N/A   Clear
11:53 AM 66.9 °F 55.9 °F 68% 29.88 in 10.0 mi NW 8.1 mph - N/A   Clear
12:53 PM 68.0 °F 55.9 °F 65% 29.87 in 10.0 mi NNW 9.2 mph - N/A   Clear
1:53 PM 71.1 °F 54.0 °F 55% 29.86 in 10.0 mi NW 9.2 mph - N/A   Clear
2:53 PM 70.0 °F 52.0 °F 53% 29.85 in 10.0 mi NW 10.4 mph - N/A   Clear
3:53 PM 69.1 °F 53.1 °F 57% 29.83 in 10.0 mi NW 9.2 mph - N/A   Mostly Cloudy
4:53 PM 69.1 °F 52.0 °F 54% 29.83 in 10.0 mi Variable 4.6 mph - N/A   Clear
5:53 PM 66.9 °F 52.0 °F 59% 29.83 in 10.0 mi WNW 11.5 mph - N/A   Mostly Cloudy
6:53 PM 66.0 °F 53.1 °F 63% 29.84 in 10.0 mi West 13.8 mph - N/A   Clear
7:53 PM 63.0 °F 53.1 °F 70% 29.84 in 10.0 mi West 9.2 mph - N/A   Clear
8:53 PM 62.1 °F 54.0 °F 75% 29.86 in 10.0 mi WSW 6.9 mph - N/A   Clear
9:53 PM 60.1 °F 54.0 °F 80% 29.86 in 10.0 mi WSW 6.9 mph - N/A   Clear
10:53 PM 57.9 °F 54.0 °F 87% 29.86 in 10.0 mi SW 4.6 mph - N/A   Clear
11:53 PM 57.0 °F 53.1 °F 87% 29.86 in 10.0 mi SSW 4.6 mph - N/A   Clear